Trinity Center, CA

8:26 PM PST on February 26, 2017 (GMT -0800)
Trinity Center

Weather History for KO86 - January, 2013

Change the Weather History Date:

Saturday, January 19, 2013

  Actual Average (KMHS) Record (KMHS)
Temperature  
Mean Temperature 34 °F -  
Max Temperature 44 °F 42 °F 66 °F (1920)
Min Temperature 23 °F 28 °F -5 °F (1922)
Degree Days  
Heating Degree Days 32    
Moisture  
Dew Point 25 °F    
Average Humidity 86    
Maximum Humidity 100    
Minimum Humidity 43    
Precipitation  
Precipitation 0.00 in - - ()
Sea Level Pressure  
Sea Level Pressure 30.35 in    
Wind  
Wind Speed 2 mph (West)    
Max Wind Speed 5 mph    
Max Gust Speed -    
Visibility 8 miles    
Events      
Averages and records for this station are not official NWS values.
T = Trace of Precipitation, MM = Missing Value Source: NWS Daily Summary

Daily Weather History Graph

Daily Weather History Graph

Search for Another Location

Airport or City:

Trip Planner

Search our weather history database for the weather conditions in past years. The results will help you decide how hot, cold, wet, or windy it might be!

Date:

Astronomy

Jan. 19, 2013 Rise Set
Actual Time 7:31 AM PST 5:12 PM PST
Civil Twilight 7:01 AM PST 5:42 PM PST
Nautical Twilight 6:27 AM PST 6:16 PM PST
Astronomical Twilight 5:54 AM PST 6:48 PM PST
Moon 11:42 AM PST (1/19) 1:10 AM PST (1/19)
Length of Visible Light 10h 41m
Length of Day
9h 41m
First Quarter, 58% of the Moon is Illuminated
Jan 19
First Quarter
Jan 26
Full
Feb 3
Last Quarter
Feb 9
New
Feb 17
First Quarter

Hourly Weather History & Observations

Time (PST) Temp. Windchill Dew Point Humidity Pressure Visibility Wind Dir Wind Speed Gust Speed Precip Events Conditions
12:10 AM 24.8 °F 20.5 °F 23.0 °F 93% 30.33 in 7.0 mi West 3.5 mph - N/A   Clear
12:30 AM 24.8 °F - 23.0 °F 93% 30.33 in 10.0 mi Calm Calm - N/A   Clear
12:50 AM 24.8 °F - 23.0 °F 93% 30.33 in 10.0 mi Calm Calm - N/A   Clear
1:10 AM 24.8 °F - 23.0 °F 93% 30.33 in 10.0 mi Calm Calm - N/A   Clear
1:30 AM 24.8 °F 20.5 °F 21.2 °F 86% 30.33 in 10.0 mi West 3.5 mph - N/A   Clear
1:50 AM 23.0 °F 18.4 °F 21.2 °F 93% 30.34 in 10.0 mi West 3.5 mph - N/A   Clear
2:10 AM 23.0 °F 18.4 °F 21.2 °F 93% 30.34 in 10.0 mi West 3.5 mph - N/A   Partly Cloudy
2:30 AM 23.0 °F 18.4 °F 19.4 °F 86% 30.35 in 10.0 mi West 3.5 mph - N/A   Scattered Clouds
2:50 AM 23.0 °F 18.4 °F 21.2 °F 93% 30.35 in 10.0 mi West 3.5 mph - N/A   Partly Cloudy
3:10 AM 23.0 °F 18.4 °F 21.2 °F 93% 30.35 in 10.0 mi West 3.5 mph - N/A   Clear
3:30 AM 23.0 °F 17.0 °F 21.2 °F 93% 30.35 in 10.0 mi West 4.6 mph - N/A   Clear
3:50 AM 23.0 °F 17.0 °F 21.2 °F 93% 30.35 in 10.0 mi West 4.6 mph - N/A   Mostly Cloudy
4:10 AM 23.0 °F 18.4 °F 21.2 °F 93% 30.35 in 10.0 mi West 3.5 mph - N/A   Overcast
4:30 AM 23.0 °F 18.4 °F 21.2 °F 93% 30.35 in 10.0 mi WNW 3.5 mph - N/A   Overcast
4:50 AM 24.8 °F - 21.2 °F 86% 30.36 in 7.0 mi Calm Calm - N/A   Overcast
5:10 AM 24.8 °F 19.1 °F 23.0 °F 93% 30.36 in 10.0 mi WNW 4.6 mph - N/A   Overcast
5:30 AM 24.8 °F 19.1 °F 24.8 °F 100% 30.36 in 4.0 mi West 4.6 mph - N/A   Overcast
5:50 AM 24.8 °F 19.1 °F 24.8 °F 100% 30.37 in 0.8 mi West 4.6 mph - N/A   Overcast
6:10 AM 24.8 °F 20.5 °F 23.0 °F 93% 30.37 in 10.0 mi West 3.5 mph - N/A   Overcast
6:30 AM 24.8 °F 20.5 °F 23.0 °F 93% 30.37 in 10.0 mi West 3.5 mph - N/A   Overcast
6:50 AM 24.8 °F 20.5 °F 23.0 °F 93% 30.37 in 3.0 mi West 3.5 mph - N/A   Overcast
7:30 AM 24.8 °F 20.5 °F 24.8 °F 100% 30.38 in 0.5 mi West 3.5 mph - N/A   Overcast
7:50 AM 24.8 °F 20.5 °F 24.8 °F 100% 30.39 in 0.2 mi West 3.5 mph - N/A   Overcast
8:10 AM 24.8 °F 20.5 °F 24.8 °F 100% 30.39 in 0.5 mi West 3.5 mph - N/A   Overcast
8:30 AM 24.8 °F - 24.8 °F 100% 30.40 in 0.8 mi Calm Calm - N/A   Overcast
8:50 AM 24.8 °F - 24.8 °F 100% 30.40 in 1.5 mi Calm Calm - N/A   Overcast
9:10 AM 26.6 °F - 26.6 °F 100% 30.41 in 0.8 mi Calm Calm - N/A   Overcast
9:30 AM 26.6 °F - 26.6 °F 100% 30.41 in 0.2 mi Calm Calm - N/A   Overcast
9:50 AM 28.4 °F - 26.6 °F 93% 30.42 in 0.2 mi Calm Calm - N/A   Overcast
10:10 AM 28.4 °F - 26.6 °F 93% 30.42 in 0.2 mi Calm Calm - N/A   Overcast
10:30 AM 28.4 °F - 28.4 °F 100% 30.41 in 0.2 mi Calm Calm - N/A   Overcast
10:50 AM 28.4 °F - 28.4 °F 100% 30.40 in 2.0 mi Calm Calm - N/A   Mostly Cloudy
11:10 AM 30.2 °F - 28.4 °F 93% 30.39 in 10.0 mi Calm Calm - N/A   Clear
11:30 AM 32.0 °F - 28.4 °F 87% 30.37 in 10.0 mi Calm Calm - N/A   Clear
11:50 AM 33.8 °F - 28.4 °F 81% 30.36 in 10.0 mi Calm Calm - N/A   Clear
12:10 PM 37.4 °F - 28.4 °F 70% 30.35 in 10.0 mi Calm Calm - N/A   Clear
12:30 PM 37.4 °F - 26.6 °F 65% 30.34 in 10.0 mi Calm Calm - N/A   Clear
12:50 PM 37.4 °F - 28.4 °F 70% 30.33 in 10.0 mi Calm Calm - N/A   Clear
1:10 PM 41.0 °F - 24.8 °F 53% 30.32 in 10.0 mi Calm Calm - N/A   Clear
1:30 PM 39.2 °F - 26.6 °F 61% 30.32 in 10.0 mi Calm Calm - N/A   Clear
1:50 PM 42.8 °F - 26.6 °F 53% 30.31 in 10.0 mi Calm Calm - N/A   Clear
2:10 PM 44.6 °F - 26.6 °F 49% 30.30 in 10.0 mi Calm Calm - N/A   Clear
2:30 PM 42.8 °F - 28.4 °F 57% 30.30 in 10.0 mi Calm Calm - N/A   Clear
2:50 PM 44.6 °F - 23.0 °F 43% 30.29 in 10.0 mi Calm Calm - N/A   Clear
3:10 PM 44.6 °F - 32.0 °F 61% 30.29 in 10.0 mi Calm Calm - N/A   Clear
3:30 PM 41.0 °F - 32.0 °F 70% 30.29 in 10.0 mi Calm Calm - N/A   Clear
3:50 PM 41.0 °F - 30.2 °F 65% 30.29 in 10.0 mi Calm Calm - N/A   Clear
4:10 PM 39.2 °F - 28.4 °F 65% 30.29 in 10.0 mi Calm Calm - N/A   Clear
4:30 PM 37.4 °F - 28.4 °F 70% 30.30 in 10.0 mi Calm Calm - N/A   Clear
4:50 PM 35.6 °F - 28.4 °F 75% 30.30 in 9.0 mi Calm Calm - N/A   Clear
5:10 PM 32.0 °F - 28.4 °F 87% 30.30 in 5.0 mi Calm Calm - N/A   Clear
5:30 PM 32.0 °F - 28.4 °F 87% 30.31 in 10.0 mi Calm Calm - N/A   Clear
5:50 PM 32.0 °F - 26.6 °F 80% 30.31 in 7.0 mi Calm Calm - N/A   Clear
6:10 PM 32.0 °F - 28.4 °F 87% 30.32 in 7.0 mi Calm Calm - N/A   Clear
6:50 PM 30.2 °F 26.7 °F 26.6 °F 86% 30.33 in 9.0 mi West 3.5 mph - N/A   Clear
7:10 PM 28.4 °F 24.6 °F 26.6 °F 93% 30.33 in 10.0 mi West 3.5 mph - N/A   Clear
7:30 PM 28.4 °F - 26.6 °F 93% 30.34 in 9.0 mi Calm Calm - N/A   Clear
7:50 PM 28.4 °F 24.6 °F 26.6 °F 93% 30.34 in 10.0 mi West 3.5 mph - N/A   Clear
8:10 PM 28.4 °F 24.6 °F 26.6 °F 93% 30.34 in 10.0 mi WSW 3.5 mph - N/A   Clear
8:30 PM 28.4 °F 24.6 °F 24.8 °F 86% 30.35 in 10.0 mi West 3.5 mph - N/A   Clear
8:45 PM 26.6 °F 22.6 °F 24.8 °F 93% 30.35 in 10.0 mi West 3.5 mph - N/A   Clear
9:10 PM 26.6 °F - 24.8 °F 93% 30.36 in 10.0 mi Calm Calm - N/A   Clear
9:30 PM 26.6 °F 22.6 °F 24.8 °F 93% 30.36 in 8.0 mi West 3.5 mph - N/A   Clear
9:50 PM 26.6 °F 22.6 °F 24.8 °F 93% 30.36 in 8.0 mi West 3.5 mph - N/A   Clear
10:10 PM 26.6 °F - 24.8 °F 93% 30.36 in 7.0 mi Calm Calm - N/A   Clear
10:30 PM 26.6 °F 22.6 °F 23.0 °F 86% 30.37 in 9.0 mi West 3.5 mph - N/A   Clear
10:50 PM 26.6 °F 22.6 °F 23.0 °F 86% 30.37 in 8.0 mi WNW 3.5 mph - N/A   Clear
11:10 PM 24.8 °F 20.5 °F 23.0 °F 93% 30.37 in 9.0 mi West 3.5 mph - N/A   Clear
11:30 PM 24.8 °F - 23.0 °F 93% 30.38 in 10.0 mi Calm Calm - N/A   Clear
11:50 PM 24.8 °F 20.5 °F 23.0 °F 93% 30.38 in 10.0 mi West 3.5 mph - N/A   Clear